カタログに戻る

FLOCK 4BE 19

運用中科学SSO
NORAD 60563·PAYLOAD·🇺🇸 United States

打ち上げ Aug 16, 2024 から Vandenberg Space Force Base

Loading…

次のパス (今後24時間)

TLE

最新Source: CelesTrak SupGP

元期: Sep 14, 2026, 20:44 UTC

1 60563C 24149AQ  26257.86438657  .00044175  00000+0  83143-3 0  2578
2 60563  97.3697 344.8478 0003715 330.2635 294.3896 15.48524894    11

AllMySatでFLOCK 4BE 19をリアルタイム追跡

Download on the App Store